Content
SEND FEEDBACK

Daily
Averages
Monthly
Summary
United States of America

COLFAX, CALIFORNIA


Home > North America > United States > California
Elevation: 2307 feet     Latitude: 39 06N     Longitude: 120 58W

WEATHER
 
SELECT A DAY
Number of Records: 59,855;   Date Range: 9/21/11 - 7/19/14
 
SHARE

PRINT THIS DATA

[ ← Previous Day ]
WEATHER ALMANAC - JANUARY 23, 2013
[ Next Day → ]
[ °C ]   °F
Weather ElementAverageHighLow
Temperature53 °F59 °F (1:15 pm)44.6 °F (5:15 pm)
Dewpoint22.6 °F44.6 °F (7:35 pm)6.8 °F (4:15 am)
Humidity38.5 %93 % (7:35 pm)14 % (4:15 am)
Barometer30.09 in30.13 in (6:35 pm)30.03 in (6:35 am)
Wind Speed4.3 mph8.1 mph (4:35 am)
Weather ElementAverage
Visibility9.6 mi
Wind DirectionESE (114.3 °)

Weather ElementTotal
Precipitation0.03 in
Heating Degree Days13.2 (Base 65)
Growing Degree Days1.8 (Base 50)
Averaged from 67 records on January 23, 2013
WEATHER CONDITIONS BREAKOUT
WIND DIRECTION BREAKOUT
WEATHER BY HOUR - JANUARY 23, 2013
[ °C ]   °F
Local TimeTemperatureDewpointHumidityBarometerVisibilityWind DirectionWind SpeedGust SpeedPrecipitationEventsConditions
12:35 AM53.6 °F14.0 °F21 %30.10 in10.0 miSE (130°)3.5 mphClear
12:55 AM53.6 °F12.2 °F19 %30.09 in10.0 miSE (130°)4.6 mphClear
1:15 AM53.6 °F12.2 °F19 %30.09 in10.0 miESE (120°)5.8 mphClear
1:35 AM55.4 °F10.4 °F17 %30.09 in10.0 miSE (130°)6.9 mphClear
1:55 AM55.4 °F10.4 °F17 %30.09 in10.0 miESE (120°)5.8 mphClear
2:15 AM55.4 °F10.4 °F17 %30.09 in10.0 miSE (140°)3.5 mphClear
2:35 AM55.4 °F10.4 °F17 %30.09 in10.0 miSE (140°)4.6 mphClear
2:55 AM55.4 °F8.6 °F15 %30.09 in10.0 miSE (140°)4.6 mphClear
3:15 AM55.4 °F8.6 °F15 %30.08 in10.0 miSE (140°)5.8 mphClear
3:35 AM55.4 °F8.6 °F15 %30.07 in10.0 miSSE (150°)5.8 mphScattered Clouds
4:15 AM55.4 °F6.8 °F14 %30.05 in10.0 miSE (130°)4.6 mphMostly Cloudy
4:35 AM55.4 °F6.8 °F14 %30.04 in10.0 miESE (110°)8.1 mphScattered Clouds
4:55 AM55.4 °F6.8 °F14 %30.04 in10.0 miSE (130°)5.8 mphPartly Cloudy
5:15 AM55.4 °F8.6 °F15 %30.04 in10.0 miSE (140°)3.5 mphPartly Cloudy
5:35 AM55.4 °F8.6 °F15 %30.04 in10.0 miSE (130°)4.6 mphScattered Clouds
5:55 AM53.6 °F10.4 °F18 %30.04 in10.0 miSE (130°)3.5 mphScattered Clouds
6:15 AM53.6 °F10.4 °F18 %30.05 in10.0 miSE (140°)3.5 mphClear
6:35 AM55.4 °F8.6 °F15 %30.03 in10.0 miESE (120°)6.9 mphScattered Clouds
7:15 AM53.6 °F10.4 °F18 %30.04 in10.0 miSE (130°)6.9 mphClear
7:35 AM55.4 °F8.6 °F15 %30.05 in10.0 miSE (140°)6.9 mphClear
7:55 AM53.6 °F10.4 °F18 %30.06 in10.0 miSSE (150°)3.5 mphClear
8:15 AM55.4 °F10.4 °F17 %30.06 in10.0 miCalmClear
8:35 AM55.4 °F10.4 °F17 %30.07 in10.0 miCalmClear
8:55 AM55.4 °F10.4 °F17 %30.07 in10.0 miSE (130°)5.8 mphScattered Clouds
9:15 AM55.4 °F10.4 °F17 %30.07 in10.0 miSE (130°)6.9 mphPartly Cloudy
9:35 AM55.4 °F15.8 °F21 %30.08 in10.0 miESE (120°)5.8 mphMostly Cloudy
9:55 AM55.4 °F14.0 °F20 %30.09 in10.0 miSE (130°)5.8 mphMostly Cloudy
10:15 AM57.2 °F15.8 °F20 %30.08 in10.0 miSSE (150°)6.9 mphPartly Cloudy
10:35 AM57.2 °F17.6 °F21 %30.09 in10.0 miSE (140°)6.9 mphPartly Cloudy
10:55 AM57.2 °F21.2 °F25 %30.11 in10.0 miSSE (160°)5.8 mphScattered Clouds
11:15 AM57.2 °F19.4 °F23 %30.11 in10.0 miSSE (160°)4.6 mphPartly Cloudy
11:35 AM57.2 °F21.2 °F25 %30.10 in10.0 miSSE (160°)5.8 mphScattered Clouds
11:55 AM57.2 °F19.4 °F23 %30.09 in10.0 miSouth (170°)5.8 mphMostly Cloudy
12:15 PM57.2 °F23.0 °F27 %30.09 in10.0 miCalmScattered Clouds
12:35 PM57.2 °F21.2 °F25 %30.10 in10.0 miSouth (180°)3.5 mphPartly Cloudy
12:55 PM57.2 °F21.2 °F25 %30.09 in10.0 miSouth (180°)4.6 mphPartly Cloudy
1:15 PM59.0 °F21.2 °F23 %30.09 in10.0 miSouth (180°)5.8 mphMostly Cloudy
1:35 PM57.2 °F19.4 °F23 %30.09 in10.0 miSouth (190°)5.8 mphMostly Cloudy
1:55 PM57.2 °F19.4 °F23 %30.08 in10.0 miSSW (200°)4.6 mphMostly Cloudy
2:15 PM57.2 °F19.4 °F23 %30.08 in10.0 miCalmOvercast
2:35 PM57.2 °F19.4 °F23 %30.08 in10.0 miSSW (210°)4.6 mphOvercast
2:55 PM57.2 °F17.6 °F21 %30.08 in9.0 miSouth (190°)3.5 mphMostly Cloudy
3:15 PM55.4 °F19.4 °F25 %30.09 in10.0 miSSW (200°)4.6 mphMostly Cloudy
3:35 PM55.4 °F19.4 °F25 %30.09 in9.0 miSSW (200°)6.9 mphMostly Cloudy
3:55 PM53.6 °F21.2 °F28 %30.09 in10.0 miSSW (210°)3.5 mphScattered Clouds
4:15 PM53.6 °F23.0 °F30 %30.10 in10.0 miSW (220°)6.9 mphScattered Clouds
4:35 PM50.0 °F30.2 °F47 %30.11 in7.0 miCalmMostly Cloudy
4:55 PM46.4 °F35.6 °F66 %30.12 in3.0 miSouth (180°)3.5 mphMostly Cloudy
5:15 PM44.6 °F39.2 °F81 %30.12 in2.5 miCalm0.01 inOvercast
5:55 PM46.4 °F41.0 °F81 %30.12 in9.0 miCalm0.02 inOvercast
6:35 PM48.2 °F41.0 °F76 %30.13 in10.0 miCalmMostly Cloudy
6:55 PM48.2 °F42.8 °F82 %30.13 in10.0 miESE (120°)3.5 mphMostly Cloudy
7:15 PM46.4 °F42.8 °F87 %30.13 in9.0 miESE (110°)3.5 mphMostly Cloudy
7:35 PM46.4 °F44.6 °F93 %30.12 in10.0 miEast (80°)3.5 mphMostly Cloudy
7:55 PM46.4 °F44.6 °F93 %30.13 in10.0 miEast (80°)4.6 mphMostly Cloudy
8:15 PM46.4 °F42.8 °F87 %30.13 in10.0 miCalmOvercast
8:35 PM46.4 °F44.6 °F93 %30.13 in9.0 miCalmOvercast
8:55 PM46.4 °F44.6 °F93 %30.13 in8.0 miCalmMostly Cloudy
9:15 PM46.4 °F44.6 °F93 %30.13 in10.0 miCalmMostly Cloudy
9:35 PM46.4 °F44.6 °F93 %30.13 in10.0 miCalmOvercast
9:55 PM48.2 °F39.2 °F71 %30.13 in10.0 miEast (100°)5.8 mphOvercast
10:15 PM48.2 °F39.2 °F71 %30.12 in10.0 miEast (90°)6.9 mphOvercast
10:35 PM48.2 °F39.2 °F71 %30.12 in10.0 miEast (100°)6.9 mphOvercast
10:55 PM48.2 °F39.2 °F71 %30.12 in10.0 miEast (100°)8.1 mphOvercast
11:15 PM48.2 °F39.2 °F71 %30.12 in10.0 miEast (100°)6.9 mphOvercast
11:35 PM48.2 °F39.2 °F71 %30.12 in10.0 miEast (100°)6.9 mphOvercast
11:55 PM48.2 °F41.0 °F76 %30.12 in9.0 miEast (100°)6.9 mphOvercast
Hourly data recorded from KGOO, located miles away from Colfax, California







STORIES FROM OUR PARTNERS